Dewpoint
43 44 43 43 44 44 46 46 46 46 46 46 47 48 48 48 48 47 43 46 45 41 41 42 41 41 40 36 32 33 32 34 31 27 28 27 27 27 28 33 33 31 30 31 32 29 24 37 37 33 33 36 39 40
43 44 44 44 44 44 46 46 46 46 46 47 47 47 47 47 47 46 40 47 47 43 41 42 43 43 42 44 37 35 33 35 35 30 29 29 26 27 27 23 35 33 32 29 30 29 32 38 36 38 39 39 39 38
43 43 44 44 43 43 46 46 47 46 46 47 47 47 47 47 47 47 43 44 42 37 35 35 35 39 42 42 40 34 35 37 38 37 33 31 26 28 22 26 28 30 35 35 33 33 34 37 39 41 40 39 39 39
42 43 45 44 44 42 45 46 47 46 47 47 47 47 47 48 48 48 44 45 44 38 34 32 37 36 39 39 41 38 38 40 38 37 34 31 26 30 27 27 27 29 28 28 30 30 31 34 38 39 39 40 40 38
42 43 44 44 44 43 45 46 47 47 47 48 47 47 48 48 48 45 46 46 46 42 35 34 35 37 40 39 41 40 38 37 35 33 32 28 30 29 28 28 26 29 27 26 26 29 32 34 36 39 39 37 36 35
42 43 44 44 44 45 45 46 47 48 47 48 48 48 48 48 47 43 41 46 47 47 39 31 34 36 43 43 42 42 41 39 37 33 33 34 36 32 29 25 28 31 33 32 32 34 36 36 38 40 37 36 37 35
42 44 44 44 44 44 45 46 47 48 48 48 47 47 47 48 41 37 40 44 48 47 39 32 32 41 44 44 43 42 41 39 36 36 34 35 33 36 34 27 28 29 31 33 34 36 36 35 34 34 35 37 37 36
42 44 44 44 45 45 46 46 46 48 48 48 48 48 48 47 43 37 44 46 47 42 39 31 33 38 44 41 40 43 40 39 36 36 35 32 34 33 28 30 32 33 35 36 37 37 35 36 33 34 35 35 34 34
43 44 44 45 45 46 46 46 47 48 48 48 48 47 46 44 42 44 48 46 46 42 35 34 32 32 42 40 41 40 40 34 39 34 35 35 34 29 30 30 32 35 37 38 37 37 32 31 33 34 34 33 32 32
43 43 43 44 46 46 47 47 47 48 48 47 45 41 38 42 47 45 42 39 38 38 38 32 33 34 38 36 34 37 38 33 28 33 37 33 30 32 33 34 34 35 38 38 37 29 30 31 33 34 33 34 33 32
41 43 43 44 46 46 46 46 47 48 45 44 39 38 42 45 42 38 35 34 35 32 36 35 33 32 39 36 34 37 31 32 24 28 30 30 31 34 40 37 37 36 37 33 32 32 32 33 33 33 32 34 33 33
41 42 42 44 45 46 46 46 48 44 39 40 42 43 42 39 36 31 31 34 32 28 31 32 33 34 38 38 34 37 29 31 26 35 33 30 35 39 35 32 32 32 31 32 33 33 33 32 31 31 32 33 33 32
42 42 43 44 45 46 46 47 47 46 45 43 40 36 34 34 26 25 23 28 29 32 33 33 29 35 34 34 32 32 30 27 35 33 30 33 39 36 33 32 32 32 32 32 31 31 32 30 29 30 32 34 33 32
42 43 43 44 45 46 46 46 47 45 42 38 35 28 30 29 31 32 32 35 38 40 39 38 34 33 31 30 28 26 28 31 30 27 31 36 38 37 35 33 32 31 31 31 30 30 31 28 28 30 35 35 34 33
43 43 44 45 46 46 46 46 47 44 41 36 35 27 29 34 37 35 37 36 39 40 39 35 36 36 29 30 30 29 30 28 29 31 35 37 37 35 32 32 32 30 30 30 29 30 30 28 29 31 36 35 34 33
44 44 43 46 46 47 47 47 44 43 40 37 35 30 32 35 35 37 39 39 40 39 40 38 33 31 30 30 32 31 30 29 33 36 35 35 35 33 32 33 32 30 30 30 30 30 32 29 28 29 32 36 34 34
44 42 44 46 46 47 45 43 41 37 35 34 30 34 34 35 35 38 39 40 40 38 36 36 30 29 34 31 31 35 32 34 35 34 34 33 32 33 34 34 34 33 32 32 30 31 31 31 29 29 28 34 34 34
42 43 45 46 46 44 43 41 39 37 33 32 29 31 35 38 39 40 39 40 37 37 37 35 37 34 32 32 32 35 38 37 36 34 33 33 34 34 32 31 32 32 33 31 31 30 31 30 29 29 29 30 31 33
43 43 45 45 45 41 38 37 36 31 30 31 32 32 33 34 37 40 38 38 39 39 37 36 34 32 34 37 37 39 38 36 33 33 33 34 33 33 34 33 32 31 31 30 30 30 30 30 30 30 30 29 28 28
44 44 45 45 45 40 36 36 39 34 29 31 34 35 34 35 39 41 37 37 36 35 34 32 33 37 39 40 42 40 41 37 32 30 30 31 33 33 33 32 31 31 30 30 30 30 29 29 29 29 30 29 28 27
44 44 45 44 42 41 38 36 35 32 32 31 34 35 35 39 37 37 39 37 35 34 34 35 38 42 44 44 43 42 41 35 31 30 30 30 32 30 30 29 29 29 30 31 30 30 30 29 29 30 29 29 28 28
43 44 43 43 39 39 37 37 36 37 37 35 34 35 33 31 32 38 38 34 37 36 40 40 40 41 42 42 42 43 43 37 32 31 33 33 30 28 28 29 30 29 29 30 31 30 29 29 30 29 29 29 28 27
44 43 41 40 37 35 34 39 36 37 34 34 35 32 31 31 32 37 33 39 38 39 37 37 37 39 40 42 37 36 43 38 32 31 31 30 31 30 30 30 30 29 28 29 31 31 30 30 30 29 29 28 28 27
43 39 36 35 36 32 35 36 37 36 35 34 32 30 34 35 37 37 36 36 37 37 35 35 36 37 41 41 40 31 37 36 32 31 30 30 30 30 30 29 29 30 30 31 31 31 31 31 31 29 28 28 27 26
35 28 35 30 36 34 33 34 34 33 29 28 28 28 33 37 34 35 34 33 34 34 33 33 34 35 37 40 41 36 32 32 32 29 29 30 30 30 30 30 30 30 31 30 30 30 30 30 30 29 28 27 27 26
31 33 32 31 32 32 32 32 32 31 31 31 34 37 39 35 32 30 30 31 31 31 32 32 32 33 35 37 37 39 41 34 30 28 28 30 30 28 28 28 28 29 31 31 30 30 29 30 30 29 29 28 29 26
28 28 31 34 34 36 35 35 36 36 34 34 35 34 33 32 29 28 32 32 30 30 33 34 34 34 34 36 37 40 37 31 30 29 29 28 28 30 30 29 28 29 31 31 31 30 30 29 29 29 29 30 29 28
32 33 33 33 35 35 34 34 35 34 34 35 35 28 27 26 22 28 31 31 31 32 34 35 35 37 37 38 39 41 26 27 28 28 26 27 28 29 30 30 30 30 32 32 32 32 31 31 30 29 29 28 28 29
31 33 32 31 34 35 35 34 34 35 35 35 32 29 27 27 28 28 30 31 32 32 32 33 33 29 35 41 43 45 26 25 27 25 24 23 23 25 28 31 32 32 32 31 30 31 32 32 32 32 31 30 30 29
31 33 31 32 32 32 35 37 34 35 32 30 30 30 28 26 23 28 29 30 30 30 32 34 31 28 28 29 36 36 29 31 27 26 25 23 24 24 28 30 31 31 32 31 30 29 29 29 29 29 29 28 28 28
37 37 36 35 34 35 36 35 34 33 31 28 28 26 25 27 29 28 28 29 30 31 31 30 30 31 31 29 27 28 32 30 29 30 27 25 24 25 27 29 30 31 31 30 30 29 28 27 26 26 26 26 26 27
34 35 35 32 33 36 36 34 34 31 32 31 31 31 30 25 20 19 28 28 28 28 30 31 30 30 33 34 32 28 29 29 30 30 28 26 25 27 27 29 30 30 30 28 28 27 26 25 25 24 24 24 24 25
36 37 35 35 32 33 34 34 34 31 30 29 30 24 21 20 15 19 26 30 29 29 30 31 32 33 34 33 32 30 29 28 30 30 30 30 30 30 31 31 31 29 27 26 25 24 23 22 23 22 22 23 23 24
Lifted_Index
15 14 13 11 10 9 8 7 6 6 6 5 4 4 4 3 4 4 4 3 3 3 2 2 2 1 1 1 1 1 2 2 3 2 2 3 3 3 3 3 3 3 3 4 4 3 3 3 3 3 3 3 3 3
15 13 12 10 9 9 8 7 7 6 6 5 5 4 4 4 4 4 4 4 4 3 3 3 2 2 1 2 2 2 2 2 3 3 3 4 4 4 4 3 3 3 3 4 4 3 3 3 3 3 3 3 3 3
14 12 10 9 9 9 8 7 7 6 6 5 5 5 4 4 4 4 5 4 4 4 4 4 3 3 2 2 2 2 3 3 3 4 4 5 5 5 5 4 4 4 4 4 4 4 4 4 3 3 3 3 3 3
13 11 9 8 9 8 8 7 6 6 6 5 5 5 4 4 4 4 5 5 4 4 4 4 4 3 3 2 2 2 3 3 4 4 5 5 5 6 5 5 5 5 5 5 5 4 4 4 4 3 3 3 3 3
11 10 8 8 8 8 7 7 6 6 5 5 5 5 5 5 5 5 4 4 4 4 4 4 4 3 3 2 2 2 3 3 4 4 5 5 6 6 6 6 6 6 7 6 5 5 4 4 4 4 3 3 3 4
9 9 8 8 8 8 7 6 5 5 5 5 5 5 5 5 6 5 4 4 4 4 4 4 3 3 2 2 2 2 2 3 4 4 5 5 6 6 5 5 6 6 7 6 5 5 4 4 4 4 4 4 5 5
9 9 8 8 7 7 7 6 5 5 4 5 5 5 5 5 6 5 5 4 4 4 4 4 3 2 2 2 2 2 2 3 3 4 5 5 6 6 5 5 5 6 5 5 5 4 4 4 4 4 5 5 6 6
9 8 8 7 7 7 6 6 5 4 4 4 4 4 5 5 5 5 5 5 4 4 4 3 2 2 2 2 2 2 2 2 3 3 4 5 5 5 4 4 4 4 4 4 4 4 4 4 4 5 6 6 7 7
9 8 8 7 7 6 6 5 5 4 4 4 4 4 4 4 4 4 4 4 4 4 4 3 2 2 1 2 2 2 2 2 3 3 3 4 4 4 4 4 4 4 3 3 3 4 4 5 5 6 7 7 8 9
9 8 8 7 6 6 6 5 5 4 4 4 4 4 3 3 4 3 3 3 3 3 3 3 2 2 1 1 2 2 2 2 2 3 3 3 3 3 3 3 3 3 3 4 4 4 5 6 6 7 8 9 11 11
9 8 8 7 6 6 6 6 5 5 4 4 4 4 4 4 4 3 3 3 2 2 2 2 2 2 1 1 1 2 2 2 2 3 3 3 2 2 2 3 3 3 4 4 5 6 6 7 8 9 11 12 13 13
9 8 8 7 6 6 6 6 5 5 5 5 4 4 4 4 3 2 2 2 2 2 2 2 2 2 2 2 2 2 2 2 3 3 3 2 2 2 2 3 3 4 4 5 6 7 8 9 10 11 12 13 14 14
9 8 8 7 6 6 6 6 5 5 5 5 4 4 3 3 2 2 2 1 1 1 1 1 1 2 2 2 2 2 3 3 3 3 2 2 2 2 3 3 4 4 5 6 7 9 10 11 12 12 13 14 15 15
8 8 8 7 6 6 6 6 5 5 5 5 4 3 2 2 2 2 2 2 2 1 1 1 1 2 2 2 2 3 3 3 2 2 2 2 3 3 4 4 5 5 6 8 9 10 11 12 12 13 14 15 15 15
8 8 7 6 6 6 6 6 5 5 5 4 3 2 2 2 2 2 2 2 2 1 1 1 1 2 2 2 2 2 2 2 2 2 2 3 3 4 5 5 6 7 7 8 10 11 11 12 12 13 14 15 16 16
8 7 7 6 6 6 6 6 6 5 5 4 3 2 2 2 2 2 2 2 2 2 2 2 2 2 2 2 2 2 2 2 2 2 3 3 4 5 5 6 7 7 8 8 10 11 11 12 12 13 14 15 16 17
7 7 6 6 6 6 6 6 6 5 4 4 3 3 2 2 2 2 2 2 2 2 2 2 2 2 2 1 1 1 2 2 2 3 4 4 5 6 6 7 7 8 8 8 9 10 11 12 13 13 13 14 16 17
7 7 6 6 6 6 6 6 6 5 4 3 3 3 2 2 2 1 1 2 2 2 2 2 2 2 2 1 1 1 2 2 3 4 4 5 6 6 7 7 8 8 8 9 9 10 11 12 13 13 13 14 15 16
7 7 6 6 6 6 6 6 5 4 3 3 3 2 2 2 1 1 1 1 2 2 2 2 2 2 2 2 2 2 2 3 3 4 5 6 6 7 7 8 8 8 9 9 10 10 11 11 12 13 13 13 14 14
7 7 6 6 5 5 5 5 5 4 3 3 3 2 2 2 1 1 1 1 2 2 2 2 2 2 2 2 2 2 2 3 3 4 5 6 7 7 7 8 8 8 9 10 10 11 11 11 12 13 13 13 13 14
6 6 5 5 5 5 5 5 5 4 4 3 2 2 2 1 1 1 1 1 2 2 2 2 2 2 2 2 2 1 2 2 3 4 5 6 7 7 7 7 8 9 9 10 11 11 12 12 12 13 13 13 13 14
5 5 5 4 4 4 4 4 4 4 3 2 2 2 1 1 1 1 1 1 2 2 2 2 2 2 2 2 2 1 2 2 3 4 5 6 7 7 7 7 8 9 10 10 11 11 12 13 13 13 13 13 14 14
5 4 4 3 3 3 3 3 3 3 2 2 2 1 1 1 1 1 1 1 2 2 2 2 2 2 2 2 2 2 1 2 3 4 6 6 7 7 7 7 8 9 10 11 11 12 12 13 13 14 14 14 14 14
4 4 3 3 3 2 3 2 2 2 2 2 2 1 1 1 1 1 1 2 2 2 3 3 3 2 2 2 2 2 1 2 3 4 6 6 7 7 7 8 9 9 10 11 11 12 13 13 13 14 14 14 14 14
4 4 3 3 2 2 2 2 2 2 2 2 1 1 1 1 1 1 1 2 2 3 4 4 3 3 3 3 2 2 2 2 3 4 5 6 6 7 7 8 9 9 10 11 11 12 12 13 13 13 14 14 14 14
3 3 3 3 3 2 2 2 2 2 2 1 1 1 1 1 1 1 2 3 3 4 4 4 4 3 3 3 3 2 2 3 3 4 5 6 6 7 7 8 8 9 10 10 11 11 12 12 13 13 13 14 14 14
3 3 3 3 3 2 2 2 2 2 2 1 1 1 1 1 1 2 3 4 4 5 5 5 4 4 3 3 3 3 4 4 4 5 6 6 7 7 7 8 8 9 9 10 10 11 11 12 12 12 13 13 13 13
4 4 3 3 3 3 2 2 2 2 2 2 2 2 2 2 2 3 4 5 5 5 5 5 4 4 3 3 3 3 4 4 5 5 6 6 7 7 7 8 8 8 9 9 10 10 10 11 11 12 12 12 12 12
4 4 4 3 3 3 3 2 3 3 3 3 3 3 3 3 4 5 6 6 6 6 5 4 4 4 3 3 3 3 4 4 5 5 5 6 7 7 7 7 8 8 9 9 9 10 10 11 11 11 11 11 12 12
4 4 4 3 3 3 3 3 3 4 4 4 4 4 4 5 6 8 8 8 7 6 5 4 4 3 3 3 2 3 4 5 5 5 5 6 6 7 7 8 8 8 9 9 9 10 10 10 10 11 11 11 12 12
4 4 4 3 3 3 4 4 4 4 5 5 5 5 5 6 7 9 9 9 8 7 6 5 5 4 3 3 3 3 5 5 5 5 6 6 6 7 8 8 8 9 9 9 10 10 10 10 11 11 11 11 12 12
4 4 4 4 4 4 4 4 4 5 5 5 5 6 6 6 6 8 10 10 9 8 7 7 6 5 5 4 4 4 5 5 5 5 5 6 6 7 8 9 9 9 9 10 10 10 10 11 11 11 11 11 12 12
4 4 4 4 4 4 4 4 4 5 5 5 5 6 6 6 6 8 10 11 10 9 8 8 7 7 6 5 5 4 4 4 4 5 5 6 6 6 7 8 9 9 10 10 10 11 11 11 11 11 11 11 12 12